Time,TemperatureF,DewpointF,PressureIn,WindDirection,WindDirectionDegrees,WindSpeedMPH,WindSpeedGustMPH,Humidity,HourlyPrecipIn,Conditions,Clouds,dailyrainin,SoftwareType,DateUTC
2013-01-30 00:02:00,15.0,12.0,29.87,North,360,5.0,-999.0,86,-99.99,,,-99.99,,2013-01-30 06:02:00,
2013-01-30 00:11:00,15.0,12.0,29.87,North,360,5.0,-999.0,86,-99.99,,,-99.99,,2013-01-30 06:11:00,
2013-01-30 00:21:00,15.0,12.0,29.88,North,360,5.0,-999.0,86,-99.99,,,-99.99,,2013-01-30 06:21:00,
2013-01-30 00:32:00,14.0,10.0,29.89,North,360,6.0,-999.0,85,-99.99,,,-99.99,,2013-01-30 06:32:00,
2013-01-30 00:42:00,14.0,10.0,29.89,North,360,6.0,-999.0,85,-99.99,,,-99.99,,2013-01-30 06:42:00,
2013-01-30 00:52:00,14.0,10.0,29.88,North,360,5.0,-999.0,84,-99.99,,,-99.99,,2013-01-30 06:52:00,
2013-01-30 01:02:00,13.0,9.0,29.88,North,360,5.0,-999.0,84,-99.99,,,-99.99,,2013-01-30 07:02:00,
2013-01-30 01:11:00,13.0,9.0,29.88,North,360,5.0,-999.0,84,-99.99,,,-99.99,,2013-01-30 07:11:00,
2013-01-30 01:21:00,12.0,8.0,29.88,NW,317,5.0,-999.0,85,-99.99,,,-99.99,,2013-01-30 07:21:00,
2013-01-30 01:32:00,12.0,8.0,29.88,NW,317,5.0,-999.0,85,-99.99,,,-99.99,,2013-01-30 07:32:00,
2013-01-30 01:41:00,12.0,8.0,29.88,NW,317,5.0,-999.0,85,-99.99,,,-99.99,,2013-01-30 07:41:00,
2013-01-30 01:52:00,12.0,9.0,29.89,NW,313,3.0,-999.0,86,-99.99,,,-99.99,,2013-01-30 07:52:00,
2013-01-30 02:01:00,12.0,9.0,29.87,North,360,5.0,-999.0,86,-99.99,,,-99.99,,2013-01-30 08:01:00,
2013-01-30 02:11:00,12.0,9.0,29.87,North,360,5.0,-999.0,86,-99.99,,,-99.99,,2013-01-30 08:11:00,
2013-01-30 02:21:00,12.0,9.0,29.86,North,360,4.0,-999.0,86,-99.99,,,-99.99,,2013-01-30 08:21:00,
2013-01-30 02:32:00,12.0,9.0,29.87,North,360,5.0,-999.0,86,-99.99,,,-99.99,,2013-01-30 08:32:00,
2013-01-30 02:42:00,12.0,9.0,29.87,North,360,5.0,-999.0,86,-99.99,,,-99.99,,2013-01-30 08:42:00,
2013-01-30 02:52:00,12.0,8.0,29.87,North,360,4.0,-999.0,85,-99.99,,,-99.99,,2013-01-30 08:52:00,
2013-01-30 03:01:00,11.0,7.0,29.87,North,360,5.0,-999.0,85,-99.99,,,-99.99,,2013-01-30 09:01:00,
2013-01-30 03:11:00,11.0,7.0,29.87,North,360,5.0,-999.0,85,-99.99,,,-99.99,,2013-01-30 09:11:00,
2013-01-30 03:21:00,11.0,7.0,29.86,North,360,5.0,-999.0,85,-99.99,,,-99.99,,2013-01-30 09:21:00,
2013-01-30 03:32:00,11.0,7.0,29.86,North,360,7.0,-999.0,84,-99.99,,,-99.99,,2013-01-30 09:32:00,
2013-01-30 03:42:00,11.0,7.0,29.86,North,360,7.0,-999.0,84,-99.99,,,-99.99,,2013-01-30 09:42:00,
2013-01-30 03:51:00,11.0,7.0,29.87,North,360,4.0,-999.0,85,-99.99,,,-99.99,,2013-01-30 09:51:00,
2013-01-30 04:01:00,11.0,7.0,29.88,North,360,3.0,-999.0,85,-99.99,,,-99.99,,2013-01-30 10:01:00,
2013-01-30 04:11:00,11.0,7.0,29.88,North,360,3.0,-999.0,85,-99.99,,,-99.99,,2013-01-30 10:11:00,
2013-01-30 04:21:00,11.0,7.0,29.88,North,360,5.0,-999.0,85,-99.99,,,-99.99,,2013-01-30 10:21:00,
2013-01-30 04:32:00,11.0,7.0,29.89,North,360,3.0,-999.0,85,-99.99,,,-99.99,,2013-01-30 10:32:00,
2013-01-30 04:42:00,11.0,7.0,29.89,North,360,3.0,-999.0,85,-99.99,,,-99.99,,2013-01-30 10:42:00,
2013-01-30 04:52:00,11.0,7.0,29.88,North,360,4.0,-999.0,84,-99.99,,,-99.99,,2013-01-30 10:52:00,
2013-01-30 05:02:00,10.0,6.0,29.88,North,360,7.0,-999.0,83,-99.99,,,-99.99,,2013-01-30 11:02:00,
2013-01-30 05:11:00,10.0,6.0,29.88,North,360,7.0,-999.0,83,-99.99,,,-99.99,,2013-01-30 11:11:00,
2013-01-30 05:22:00,10.0,6.0,29.87,North,360,5.0,-999.0,83,-99.99,,,-99.99,,2013-01-30 11:22:00,
2013-01-30 05:32:00,9.0,5.0,29.87,North,360,7.0,-999.0,82,-99.99,,,-99.99,,2013-01-30 11:32:00,
2013-01-30 05:42:00,9.0,5.0,29.87,North,360,7.0,-999.0,82,-99.99,,,-99.99,,2013-01-30 11:42:00,
2013-01-30 05:52:00,9.0,5.0,29.87,NW,306,10.0,-999.0,82,-99.99,,,-99.99,,2013-01-30 11:52:00,
2013-01-30 06:02:00,8.0,4.0,29.87,North,360,9.0,-999.0,82,-99.99,,,-99.99,,2013-01-30 12:02:00,
2013-01-30 06:12:00,8.0,4.0,29.87,North,360,9.0,-999.0,82,-99.99,,,-99.99,,2013-01-30 12:12:00,
2013-01-30 06:22:00,8.0,4.0,29.87,North,360,12.0,-999.0,82,-99.99,,,-99.99,,2013-01-30 12:22:00,
2013-01-30 06:32:00,8.0,4.0,29.86,North,360,13.0,-999.0,83,-99.99,,,-99.99,,2013-01-30 12:32:00,
2013-01-30 06:42:00,8.0,4.0,29.86,North,360,13.0,-999.0,83,-99.99,,,-99.99,,2013-01-30 12:42:00,
2013-01-30 07:03:00,8.0,4.0,29.85,NW,306,9.0,-999.0,85,-99.99,,,-99.99,,2013-01-30 13:03:00,
2013-01-30 07:12:00,8.0,4.0,29.85,NW,306,9.0,-999.0,85,-99.99,,,-99.99,,2013-01-30 13:12:00,
2013-01-30 07:23:00,7.0,3.0,29.85,North,360,12.0,-999.0,83,-99.99,,,-99.99,,2013-01-30 13:23:00,
2013-01-30 07:33:00,7.0,3.0,29.86,North,360,10.0,-999.0,84,-99.99,,,-99.99,,2013-01-30 13:33:00,
2013-01-30 07:42:00,7.0,3.0,29.86,North,360,10.0,-999.0,84,-99.99,,,-99.99,,2013-01-30 13:42:00,
2013-01-30 07:52:00,7.0,3.0,29.86,NW,305,9.0,-999.0,84,-99.99,,,-99.99,,2013-01-30 13:52:00,
2013-01-30 08:02:00,6.0,2.0,29.87,North,360,12.0,-999.0,83,-99.99,,,-99.99,,2013-01-30 14:02:00,
2013-01-30 08:12:00,6.0,2.0,29.87,North,360,12.0,-999.0,83,-99.99,,,-99.99,,2013-01-30 14:12:00,
2013-01-30 08:22:00,6.0,2.0,29.87,North,360,12.0,-999.0,83,-99.99,,,-99.99,,2013-01-30 14:22:00,
2013-01-30 08:33:00,6.0,2.0,29.87,North,360,12.0,-999.0,84,-99.99,,,-99.99,,2013-01-30 14:33:00,
2013-01-30 08:42:00,6.0,2.0,29.87,North,360,12.0,-999.0,84,-99.99,,,-99.99,,2013-01-30 14:42:00,
2013-01-30 08:53:00,6.0,2.0,29.87,NW,317,11.0,-999.0,84,-99.99,,,-99.99,,2013-01-30 14:53:00,
2013-01-30 09:03:00,6.0,2.0,29.87,NW,311,11.0,-999.0,85,-99.99,,,-99.99,,2013-01-30 15:03:00,
2013-01-30 09:12:00,6.0,2.0,29.87,NW,311,11.0,-999.0,85,-99.99,,,-99.99,,2013-01-30 15:12:00,
2013-01-30 09:23:00,6.0,2.0,29.87,North,360,12.0,-999.0,84,-99.99,,,-99.99,,2013-01-30 15:23:00,
2013-01-30 09:33:00,6.0,2.0,29.87,North,360,11.0,-999.0,84,-99.99,,,-99.99,,2013-01-30 15:33:00,
2013-01-30 09:43:00,6.0,2.0,29.87,North,360,11.0,-999.0,84,-99.99,,,-99.99,,2013-01-30 15:43:00,
2013-01-30 09:52:00,6.0,2.0,29.87,North,360,9.0,-999.0,85,-99.99,,,-99.99,,2013-01-30 15:52:00,
2013-01-30 10:03:00,6.0,2.0,29.87,North,360,9.0,-999.0,85,-99.99,,,-99.99,,2013-01-30 16:03:00,
2013-01-30 10:12:00,6.0,2.0,29.87,North,360,9.0,-999.0,85,-99.99,,,-99.99,,2013-01-30 16:12:00,
2013-01-30 10:23:00,6.0,2.0,29.86,North,360,9.0,-999.0,84,-99.99,,,-99.99,,2013-01-30 16:23:00,
2013-01-30 10:32:00,7.0,3.0,29.87,North,360,8.0,-999.0,84,-99.99,,,-99.99,,2013-01-30 16:32:00,
2013-01-30 10:42:00,7.0,3.0,29.87,North,360,8.0,-999.0,84,-99.99,,,-99.99,,2013-01-30 16:42:00,
2013-01-30 10:52:00,7.0,3.0,29.87,North,360,8.0,-999.0,84,-99.99,,,-99.99,,2013-01-30 16:52:00,
2013-01-30 11:02:00,7.0,3.0,29.88,North,360,9.0,-999.0,84,-99.99,,,-99.99,,2013-01-30 17:02:00,
2013-01-30 11:12:00,7.0,3.0,29.88,North,360,9.0,-999.0,84,-99.99,,,-99.99,,2013-01-30 17:12:00,
2013-01-30 11:22:00,7.0,3.0,29.88,North,360,11.0,-999.0,84,-99.99,,,-99.99,,2013-01-30 17:22:00,
2013-01-30 11:33:00,7.0,3.0,29.88,WNW,303,12.0,-999.0,84,-99.99,,,-99.99,,2013-01-30 17:33:00,
2013-01-30 11:42:00,7.0,3.0,29.88,WNW,303,12.0,-999.0,84,-99.99,,,-99.99,,2013-01-30 17:42:00,
2013-01-30 11:53:00,8.0,4.0,29.88,WNW,298,11.0,-999.0,83,-99.99,,,-99.99,,2013-01-30 17:53:00,
2013-01-30 12:02:00,9.0,5.0,29.87,North,360,13.0,-999.0,82,-99.99,,,-99.99,,2013-01-30 18:02:00,
2013-01-30 12:12:00,9.0,5.0,29.87,North,360,13.0,-999.0,82,-99.99,,,-99.99,,2013-01-30 18:12:00,
2013-01-30 12:22:00,9.0,5.0,29.87,North,360,13.0,-999.0,82,-99.99,,,-99.99,,2013-01-30 18:22:00,
2013-01-30 12:33:00,9.0,5.0,29.87,North,360,10.0,-999.0,83,-99.99,,,-99.99,,2013-01-30 18:33:00,
2013-01-30 12:42:00,9.0,5.0,29.87,North,360,10.0,-999.0,83,-99.99,,,-99.99,,2013-01-30 18:42:00,
2013-01-30 12:53:00,9.0,5.0,29.87,North,360,11.0,-999.0,82,-99.99,,,-99.99,,2013-01-30 18:53:00,
2013-01-30 13:02:00,9.0,5.0,29.87,North,360,11.0,-999.0,82,-99.99,,,-99.99,,2013-01-30 19:02:00,
2013-01-30 13:12:00,9.0,5.0,29.87,North,360,11.0,-999.0,82,-99.99,,,-99.99,,2013-01-30 19:12:00,
2013-01-30 13:22:00,9.0,4.0,29.86,North,360,11.0,-999.0,81,-99.99,,,-99.99,,2013-01-30 19:22:00,
2013-01-30 13:32:00,9.0,4.0,29.86,North,360,11.0,-999.0,81,-99.99,,,-99.99,,2013-01-30 19:32:00,
2013-01-30 13:43:00,9.0,4.0,29.86,North,360,11.0,-999.0,81,-99.99,,,-99.99,,2013-01-30 19:43:00,
2013-01-30 13:53:00,9.0,5.0,29.85,North,360,10.0,-999.0,82,-99.99,,,-99.99,,2013-01-30 19:53:00,
2013-01-30 14:03:00,8.0,4.0,29.85,NW,313,11.0,-999.0,84,-99.99,,,-99.99,,2013-01-30 20:03:00,
2013-01-30 14:12:00,8.0,4.0,29.85,NW,313,11.0,-999.0,84,-99.99,,,-99.99,,2013-01-30 20:12:00,
2013-01-30 14:22:00,8.0,4.0,29.85,North,360,11.0,-999.0,84,-99.99,,,-99.99,,2013-01-30 20:22:00,
2013-01-30 14:33:00,8.0,4.0,29.85,North,360,9.0,-999.0,84,-99.99,,,-99.99,,2013-01-30 20:33:00,
2013-01-30 14:42:00,8.0,4.0,29.85,North,360,9.0,-999.0,84,-99.99,,,-99.99,,2013-01-30 20:42:00,
2013-01-30 14:53:00,7.0,3.0,29.85,North,360,13.0,-999.0,84,-99.99,,,-99.99,,2013-01-30 20:53:00,
2013-01-30 15:03:00,6.0,2.0,29.86,North,360,14.0,-999.0,84,-99.99,,,-99.99,,2013-01-30 21:03:00,
2013-01-30 15:12:00,6.0,2.0,29.86,North,360,14.0,-999.0,84,-99.99,,,-99.99,,2013-01-30 21:12:00,
2013-01-30 15:23:00,6.0,2.0,29.86,North,360,12.0,-999.0,85,-99.99,,,-99.99,,2013-01-30 21:23:00,
2013-01-30 15:32:00,6.0,2.0,29.86,North,360,12.0,-999.0,85,-99.99,,,-99.99,,2013-01-30 21:32:00,
2013-01-30 15:42:00,6.0,2.0,29.86,North,360,12.0,-999.0,85,-99.99,,,-99.99,,2013-01-30 21:42:00,
2013-01-30 15:52:00,6.0,2.0,29.87,North,360,15.0,-999.0,84,-99.99,,,-99.99,,2013-01-30 21:52:00,
2013-01-30 16:02:00,6.0,2.0,29.87,WNW,292,13.0,-999.0,84,-99.99,,,-99.99,,2013-01-30 22:02:00,
2013-01-30 16:12:00,6.0,2.0,29.87,WNW,292,13.0,-999.0,84,-99.99,,,-99.99,,2013-01-30 22:12:00,
2013-01-30 16:22:00,6.0,2.0,29.87,NW,317,12.0,-999.0,84,-99.99,,,-99.99,,2013-01-30 22:22:00,
2013-01-30 16:32:00,5.0,2.0,29.87,NW,310,12.0,-999.0,85,-99.99,,,-99.99,,2013-01-30 22:32:00,
2013-01-30 16:42:00,5.0,2.0,29.87,NW,310,12.0,-999.0,85,-99.99,,,-99.99,,2013-01-30 22:42:00,
2013-01-30 16:52:00,5.0,1.0,29.87,North,360,13.0,-999.0,84,-99.99,,,-99.99,,2013-01-30 22:52:00,
2013-01-30 17:02:00,4.0,0.0,29.87,WNW,303,14.0,-999.0,84,-99.99,,,-99.99,,2013-01-30 23:02:00,
2013-01-30 17:12:00,4.0,0.0,29.87,WNW,303,14.0,-999.0,84,-99.99,,,-99.99,,2013-01-30 23:12:00,
2013-01-30 17:22:00,4.0,0.0,29.87,NW,307,10.0,-999.0,84,-99.99,,,-99.99,,2013-01-30 23:22:00,
2013-01-30 17:32:00,4.0,0.0,29.88,NW,305,12.0,-999.0,84,-99.99,,,-99.99,,2013-01-30 23:32:00,
2013-01-30 17:42:00,4.0,0.0,29.88,NW,305,12.0,-999.0,84,-99.99,,,-99.99,,2013-01-30 23:42:00,
2013-01-30 17:52:00,4.0,0.0,29.88,North,360,13.0,-999.0,83,-99.99,,,-99.99,,2013-01-30 23:52:00,
2013-01-30 18:02:00,4.0,0.0,29.88,North,360,11.0,-999.0,84,-99.99,,,-99.99,,2013-01-31 00:02:00,
2013-01-30 18:11:00,4.0,0.0,29.88,North,360,11.0,-999.0,84,-99.99,,,-99.99,,2013-01-31 00:11:00,
2013-01-30 18:22:00,3.0,-1.0,29.88,WNW,303,12.0,-999.0,83,-99.99,,,-99.99,,2013-01-31 00:22:00,
2013-01-30 18:32:00,3.0,-1.0,29.89,NW,304,11.0,-999.0,83,-99.99,,,-99.99,,2013-01-31 00:32:00,
2013-01-30 18:42:00,3.0,-1.0,29.89,NW,304,11.0,-999.0,83,-99.99,,,-99.99,,2013-01-31 00:42:00,
2013-01-30 18:52:00,2.0,-2.0,29.89,North,360,11.0,-999.0,83,-99.99,,,-99.99,,2013-01-31 00:52:00,
2013-01-30 19:02:00,2.0,-2.0,29.89,North,360,12.0,-999.0,83,-99.99,,,-99.99,,2013-01-31 01:02:00,
2013-01-30 19:12:00,2.0,-2.0,29.89,North,360,12.0,-999.0,83,-99.99,,,-99.99,,2013-01-31 01:12:00,
2013-01-30 19:21:00,1.0,-3.0,29.89,WNW,303,12.0,-999.0,83,-99.99,,,-99.99,,2013-01-31 01:21:00,
2013-01-30 19:32:00,1.0,-3.0,29.89,WNW,303,12.0,-999.0,83,-99.99,,,-99.99,,2013-01-31 01:32:00,
2013-01-30 19:42:00,1.0,-3.0,29.89,WNW,303,12.0,-999.0,83,-99.99,,,-99.99,,2013-01-31 01:42:00,
2013-01-30 19:52:00,0.0,-4.0,29.90,NW,310,12.0,-999.0,83,-99.99,,,-99.99,,2013-01-31 01:52:00,
2013-01-30 20:01:00,0.0,-4.0,29.90,NW,307,14.0,-999.0,83,-99.99,,,-99.99,,2013-01-31 02:01:00,
2013-01-30 20:11:00,0.0,-4.0,29.90,NW,307,14.0,-999.0,83,-99.99,,,-99.99,,2013-01-31 02:11:00,
2013-01-30 20:21:00,0.0,-4.0,29.91,North,360,13.0,-999.0,82,-99.99,,,-99.99,,2013-01-31 02:21:00,
2013-01-30 20:32:00,-1.0,-5.0,29.91,North,360,13.0,-999.0,82,-99.99,,,-99.99,,2013-01-31 02:32:00,
2013-01-30 20:41:00,-1.0,-5.0,29.91,North,360,13.0,-999.0,82,-99.99,,,-99.99,,2013-01-31 02:41:00,
2013-01-30 20:52:00,-1.0,-5.0,29.91,North,360,13.0,-999.0,82,-99.99,,,-99.99,,2013-01-31 02:52:00,
2013-01-30 21:03:00,-1.0,-5.0,29.91,NW,308,12.0,-999.0,82,-99.99,,,-99.99,,2013-01-31 03:03:00,
2013-01-30 21:11:00,-1.0,-5.0,29.91,NW,308,12.0,-999.0,82,-99.99,,,-99.99,,2013-01-31 03:11:00,
2013-01-30 21:21:00,-1.0,-5.0,29.91,NW,319,12.0,-999.0,82,-99.99,,,-99.99,,2013-01-31 03:21:00,
2013-01-30 21:32:00,-2.0,-6.0,29.91,North,360,13.0,-999.0,82,-99.99,,,-99.99,,2013-01-31 03:32:00,
2013-01-30 21:41:00,-2.0,-6.0,29.91,North,360,13.0,-999.0,82,-99.99,,,-99.99,,2013-01-31 03:41:00,
2013-01-30 21:51:00,-2.0,-6.0,29.92,North,360,11.0,-999.0,83,-99.99,,,-99.99,,2013-01-31 03:51:00,
2013-01-30 22:02:00,-2.0,-6.0,29.92,NW,315,11.0,-999.0,82,-99.99,,,-99.99,,2013-01-31 04:02:00,
2013-01-30 22:11:00,-2.0,-6.0,29.92,NW,315,11.0,-999.0,82,-99.99,,,-99.99,,2013-01-31 04:11:00,
2013-01-30 22:22:00,-3.0,-7.0,29.92,NW,317,11.0,-999.0,83,-99.99,,,-99.99,,2013-01-31 04:22:00,
2013-01-30 22:31:00,-3.0,-7.0,29.93,WNW,302,9.0,-999.0,82,-99.99,,,-99.99,,2013-01-31 04:31:00,
2013-01-30 22:41:00,-3.0,-7.0,29.93,WNW,302,9.0,-999.0,82,-99.99,,,-99.99,,2013-01-31 04:41:00,
2013-01-30 22:51:00,-3.0,-7.0,29.94,NW,314,10.0,-999.0,81,-99.99,,,-99.99,,2013-01-31 04:51:00,
2013-01-30 23:03:00,-3.0,-7.0,29.93,NW,308,11.0,-999.0,81,-99.99,,,-99.99,,2013-01-31 05:03:00,
2013-01-30 23:11:00,-3.0,-7.0,29.93,NW,308,11.0,-999.0,81,-99.99,,,-99.99,,2013-01-31 05:11:00,
2013-01-30 23:22:00,-4.0,-8.0,29.94,North,360,11.0,-999.0,81,-99.99,,,-99.99,,2013-01-31 05:22:00,
2013-01-30 23:32:00,-4.0,-8.0,29.94,North,360,11.0,-999.0,81,-99.99,,,-99.99,,2013-01-31 05:32:00,
2013-01-30 23:41:00,-4.0,-8.0,29.94,NW,315,12.0,-999.0,81,-99.99,,,-99.99,,2013-01-31 05:41:00,
2013-01-30 23:52:00,-4.0,-8.0,29.94,NW,315,12.0,-999.0,81,-99.99,,,-99.99,,2013-01-31 05:52:00,